Humidity-temperature Sensor

Selected Measurement Type: Air Temperature

 
Air Temperature [°C]     6 entries per hour
Showing data from 12/11/2018 (02:00:00 Z) to 12/4/2018 (00:01:00 Z)
Previous Next [ Day | 3-Days | 7-Days ]
First Last
Prev [ Day | 3-Days | 7-Days ] Next
First Last

Start Time:     :
End Time:     :     
Time (in GMT) :00 :50 :40 :30 :20 :10
Previous Next [ Day | 3-Days | 7-Days ]
First Last
Prev [ Day | 3-Days | 7-Days ] Next
First Last


123 => good data
MM => data is determined as missing
-- => data not received/configured
Back to Top Back to Top
12/11/2018 02:00 to 1:10 22.73 22.60 22.50 22.77 22.66 22.75
12/11/2018 01:00 to 0:10 22.77 22.54 22.60 22.54 22.81 22.74
12/11/2018 00:00 to 23:10 22.88 23.15 23.10 23.06 23.22 23.16
12/10/2018 23:00 to 22:10 23.02 23.22 23.04 23.25 23.72 23.33
12/10/2018 22:00 to 21:10 23.43 23.18 23.24 23.05 22.97 23.18
12/10/2018 21:00 to 20:10 23.00 23.10 23.08 23.27 23.21 23.45
12/10/2018 20:00 to 19:10 23.28 23.15 23.06 23.39 23.31 23.23
12/10/2018 19:00 to 18:10 23.37 23.43 23.35 23.17 23.15 23.42
12/10/2018 18:00 to 17:10 23.34 23.31 23.27 23.37 23.57 23.53
12/10/2018 17:00 to 16:10 23.56 23.53 23.59 23.69 23.52 23.57
12/10/2018 16:00 to 15:10 23.56 23.50 23.54 23.46 23.46 23.67
12/10/2018 15:00 to 14:10 23.75 23.45 23.54 23.43 23.24 23.38
12/10/2018 14:00 to 13:10 23.47 23.32 23.24 23.59 23.75 23.41
12/10/2018 13:00 to 12:10 23.53 23.32 23.12 23.10 23.41 23.07
12/10/2018 12:00 to 11:10 22.94 22.91 23.06 22.97 23.06 22.76
12/10/2018 11:00 to 10:10 22.71 22.75 22.90 22.75 22.70 22.51
12/10/2018 10:00 to 9:10 22.52 22.81 22.51 22.83 22.84 22.76
12/10/2018 09:00 to 8:10 22.57 22.82 22.73 23.00 22.65 22.62
12/10/2018 08:00 to 7:10 22.75 22.54 22.60 22.64 22.48 22.56
12/10/2018 07:00 to 6:10 22.51 22.61 22.64 22.56 22.64 22.58
12/10/2018 06:00 to 5:10 22.73 22.65 22.66 22.68 22.58 22.61
12/10/2018 05:00 to 4:10 22.58 22.60 22.68 22.63 22.70 22.85
12/10/2018 04:00 to 3:10 22.63 22.69 22.75 22.77 22.71 22.70
12/10/2018 03:00 to 2:10 22.78 22.63 22.66 22.64 22.80 22.69
12/10/2018 02:00 to 1:10 22.62 22.73 22.58 22.79 22.54 22.67
12/10/2018 01:00 to 0:10 22.75 22.62 22.90 22.64 22.68 22.82
12/10/2018 00:00 to 23:10 22.87 22.76 22.79 23.09 23.09 23.07
12/9/2018 23:00 to 22:10 22.70 22.79 22.76 22.71 22.53 22.82
12/9/2018 22:00 to 21:10 23.07 23.15 23.10 23.18 22.89 23.02
12/9/2018 21:00 to 20:10 22.97 22.86 22.79 22.95 22.84 22.94
12/9/2018 20:00 to 19:10 22.84 22.92 23.11 22.74 22.96 22.82
12/9/2018 19:00 to 18:10 22.93 22.93 22.89 22.75 22.70 22.73
12/9/2018 18:00 to 17:10 22.55 22.75 22.67 22.71 23.03 22.88
12/9/2018 17:00 to 16:10 23.19 22.93 22.83 22.77 22.90 22.84
12/9/2018 16:00 to 15:10 22.86 23.02 23.22 23.40 23.26 23.19
12/9/2018 15:00 to 14:10 22.94 22.91 22.69 22.74 22.77 22.71
12/9/2018 14:00 to 13:10 22.76 22.70 22.72 22.39 22.56 22.30
12/9/2018 13:00 to 12:10 22.19 22.09 22.24 21.89 22.04 21.93
12/9/2018 12:00 to 11:10 22.03 21.87 22.18 22.09 21.98 22.14
12/9/2018 11:00 to 10:10 22.06 22.19 22.32 22.22 22.21 22.30
12/9/2018 10:00 to 9:10 22.31 22.07 21.87 22.19 22.11 22.13
12/9/2018 09:00 to 8:10 22.28 22.23 22.31 22.15 22.10 22.15
12/9/2018 08:00 to 7:10 22.12 22.16 22.08 22.29 22.40 22.30
12/9/2018 07:00 to 6:10 22.34 22.19 22.34 22.49 22.47 22.49
12/9/2018 06:00 to 5:10 22.54 22.50 22.50 22.56 22.47 22.56
12/9/2018 05:00 to 4:10 22.63 22.48 22.46 22.50 22.52 22.36
12/9/2018 04:00 to 3:10 22.51 22.46 22.54 22.54 22.47 22.63
12/9/2018 03:00 to 2:10 22.52 22.41 22.61 22.45 22.62 22.53
12/9/2018 02:00 to 1:10 22.43 22.46 22.42 22.47 22.35 22.55
12/9/2018 01:00 to 0:10 22.37 22.34 22.34 22.36 22.48 22.58
12/9/2018 00:00 to 23:10 22.63 22.62 22.72 22.64 22.71 22.71
12/8/2018 23:00 to 22:10 22.90 23.02 22.75 22.68 22.69 22.64
12/8/2018 22:00 to 21:10 22.62 22.56 22.84 22.90 22.88 22.79
12/8/2018 21:00 to 20:10 23.00 22.83 22.69 22.86 22.93 22.80
12/8/2018 20:00 to 19:10 23.10 22.79 22.72 22.99 22.73 22.82
12/8/2018 19:00 to 18:10 22.88 22.84 22.78 22.78 23.00 22.85
12/8/2018 18:00 to 17:10 22.77 22.79 22.89 23.01 22.80 22.98
12/8/2018 17:00 to 16:10 22.93 22.90 22.89 22.93 22.62 22.72
12/8/2018 16:00 to 15:10 22.78 22.67 22.89 22.67 22.86 22.75
12/8/2018 15:00 to 14:10 22.79 22.67 22.66 22.38 22.52 22.42
12/8/2018 14:00 to 13:10 22.54 22.33 22.45 22.42 22.23 22.30
12/8/2018 13:00 to 12:10 22.44 22.36 22.40 22.34 22.39 22.51
12/8/2018 12:00 to 11:10 22.42 22.35 22.25 21.96 22.58 22.57
12/8/2018 11:00 to 10:10 22.26 22.41 22.41 22.30 22.23 22.26
12/8/2018 10:00 to 9:10 22.10 22.45 22.30 22.31 22.31 22.13
12/8/2018 09:00 to 8:10 22.55 22.37 22.40 22.45 22.34 22.88
12/8/2018 08:00 to 7:10 22.55 22.57 22.33 22.41 22.38 22.46
12/8/2018 07:00 to 6:10 22.42 22.66 22.46 22.54 22.37 22.34
12/8/2018 06:00 to 5:10 22.57 22.58 22.36 22.75 22.58 22.61
12/8/2018 05:00 to 4:10 22.64 22.57 22.57 22.59 22.57 22.53
12/8/2018 04:00 to 3:10 22.45 22.43 22.53 22.61 22.90 22.65
12/8/2018 03:00 to 2:10 22.76 22.52 22.47 22.60 22.48 22.61
12/8/2018 02:00 to 1:10 22.61 22.46 22.67 22.54 22.43 22.48
12/8/2018 01:00 to 0:10 22.67 22.40 22.46 22.50 22.57 22.32
12/8/2018 00:00 to 23:10 22.25 22.44 22.61 22.80 22.84 22.85
12/7/2018 23:00 to 22:10 22.98 22.92 23.06 22.93 22.98 22.85
12/7/2018 22:00 to 21:10 22.77 22.64 22.80 22.73 22.59 22.72
12/7/2018 21:00 to 20:10 22.60 22.73 22.69 22.44 22.53 22.72
12/7/2018 20:00 to 19:10 22.76 22.71 22.75 22.75 22.57 22.75
12/7/2018 19:00 to 18:10 22.58 22.54 22.54 22.45 22.51 22.55
12/7/2018 18:00 to 17:10 22.52 22.72 22.66 22.44 22.61 22.66
12/7/2018 17:00 to 16:10 22.62 22.80 22.53 22.36 22.59 22.49
12/7/2018 16:00 to 15:10 22.42 22.52 22.59 22.54 22.56 22.58
12/7/2018 15:00 to 14:10 22.62 22.47 22.66 22.80 22.70 22.41
12/7/2018 14:00 to 13:10 22.44 22.34 22.59 22.31 22.27 22.46
12/7/2018 13:00 to 12:10 22.64 22.63 22.44 22.59 22.32 22.29
12/7/2018 12:00 to 11:10 22.16 22.02 21.98 22.10 22.04 21.93
12/7/2018 11:00 to 10:10 21.96 22.04 22.19 22.23 22.12 22.40
12/7/2018 10:00 to 9:10 22.22 22.15 22.05 22.04 22.26 22.02
12/7/2018 09:00 to 8:10 21.98 22.24 22.08 22.16 22.05 22.22
12/7/2018 08:00 to 7:10 22.09 22.09 22.05 22.11 22.02 22.27
12/7/2018 07:00 to 6:10 22.27 22.24 22.24 22.15 22.21 22.33
12/7/2018 06:00 to 5:10 22.26 22.22 22.24 22.27 22.29 22.35
12/7/2018 05:00 to 4:10 22.25 22.38 22.27 22.28 22.37 22.29
12/7/2018 04:00 to 3:10 22.43 22.25 22.51 22.60 22.36 22.31
12/7/2018 03:00 to 2:10 22.31 22.40 22.23 22.45 22.51 22.23
12/7/2018 02:00 to 1:10 22.22 22.37 22.19 22.43 22.53 22.37
12/7/2018 01:00 to 0:10 22.40 22.40 22.29 22.34 22.33 22.37
12/7/2018 00:00 to 23:10 22.38 22.56 22.45 22.45 22.44 22.56
12/6/2018 23:00 to 22:10 22.60 22.59 22.58 22.43 22.37 22.53
12/6/2018 22:00 to 21:10 22.67 22.58 22.55 22.57 22.38 22.45
12/6/2018 21:00 to 20:10 22.46 22.36 22.78 22.66 22.48 22.42
12/6/2018 20:00 to 19:10 22.57 22.39 22.47 22.49 22.51 22.56
12/6/2018 19:00 to 18:10 22.48 22.45 22.54 22.42 22.45 22.52
12/6/2018 18:00 to 17:10 22.50 22.46 22.50 22.67 22.49 22.60
12/6/2018 17:00 to 16:10 22.61 22.42 22.58 22.57 22.59 22.60
12/6/2018 16:00 to 15:10 22.60 22.58 22.72 22.61 22.58 22.58
12/6/2018 15:00 to 14:10 22.46 22.62 22.54 22.48 22.27 22.33
12/6/2018 14:00 to 13:10 22.43 22.34 22.55 22.31 22.26 22.25
12/6/2018 13:00 to 12:10 22.30 22.27 22.09 22.20 22.18 22.17
12/6/2018 12:00 to 11:10 22.08 21.98 22.23 22.11 22.09 22.05
12/6/2018 11:00 to 10:10 22.18 21.99 22.02 21.93 21.91 21.97
12/6/2018 10:00 to 9:10 22.05 21.99 22.10 22.21 22.17 22.13
12/6/2018 09:00 to 8:10 22.12 22.14 22.25 22.17 22.21 22.25
12/6/2018 08:00 to 7:10 22.28 22.23 22.25 22.25 22.53 22.22
12/6/2018 07:00 to 6:10 22.45 22.20 22.40 22.40 22.27 22.30
12/6/2018 06:00 to 5:10 22.31 22.27 22.35 22.24 22.24 22.33
12/6/2018 05:00 to 4:10 22.43 22.62 22.49 22.37 22.42 22.44
12/6/2018 04:00 to 3:10 22.47 22.37 22.50 22.33 22.45 22.26
12/6/2018 03:00 to 2:10 22.50 22.43 22.46 22.39 22.41 22.42
12/6/2018 02:00 to 1:10 22.50 22.59 22.31 22.46 22.46 22.40
12/6/2018 01:00 to 0:10 22.51 22.32 22.41 22.46 22.41 22.51
12/6/2018 00:00 to 23:10 22.36 22.56 22.76 22.63 22.76 22.62
12/5/2018 23:00 to 22:10 22.54 22.60 22.44 22.58 22.57 22.55
12/5/2018 22:00 to 21:10 22.63 22.45 22.46 22.48 22.47 22.41
12/5/2018 21:00 to 20:10 22.58 22.66 22.48 22.40 22.57 22.54
12/5/2018 20:00 to 19:10 22.60 22.57 22.67 22.52 22.45 22.41
12/5/2018 19:00 to 18:10 22.44 22.48 22.28 22.40 22.34 22.46
12/5/2018 18:00 to 17:10 22.44 22.45 22.40 22.62 22.40 22.49
12/5/2018 17:00 to 16:10 22.53 22.56 22.55 22.48 22.44 22.44
12/5/2018 16:00 to 15:10 22.44 22.50 22.36 22.34 22.50 22.43
12/5/2018 15:00 to 14:10 22.48 22.45 22.45 22.49 22.41 22.48
12/5/2018 14:00 to 13:10 22.42 22.44 22.28 22.28 22.30 22.33
12/5/2018 13:00 to 12:10 22.35 22.36 22.35 22.47 22.32 22.25
12/5/2018 12:00 to 11:10 22.20 22.25 22.20 22.11 22.12 22.19
12/5/2018 11:00 to 10:10 22.07 22.09 22.13 22.17 21.99 21.86
12/5/2018 10:00 to 9:10 22.10 22.01 22.07 22.02 22.03 22.06
12/5/2018 09:00 to 8:10 22.05 22.15 22.20 22.26 22.06 22.07
12/5/2018 08:00 to 7:10 22.24 22.08 22.36 22.13 22.19 22.22
12/5/2018 07:00 to 6:10 22.28 22.15 22.14 22.26 22.27 22.18
12/5/2018 06:00 to 5:10 22.14 22.07 22.09 22.54 22.31 22.24
12/5/2018 05:00 to 4:10 22.35 22.25 22.51 22.40 22.37 22.24
12/5/2018 04:00 to 3:10 22.33 22.30 22.26 22.29 22.37 22.31
12/5/2018 03:00 to 2:10 22.34 22.44 22.41 22.37 22.32 22.44
12/5/2018 02:00 to 1:10 22.41 22.41 22.43 22.24 22.44 22.45
12/5/2018 01:00 to 0:10 22.46 22.36 22.40 22.40 22.53 22.32
12/5/2018 00:00 to 23:10 22.51 22.40 22.48 22.42 22.66 22.61
12/4/2018 23:00 to 22:10 22.71 22.76 22.78 23.00 22.87 23.00
12/4/2018 22:00 to 21:10 22.87 22.84 22.67 22.83 22.82 22.74
12/4/2018 21:00 to 20:10 22.63 22.68 22.49 22.68 22.60 22.57
12/4/2018 20:00 to 19:10 22.51 22.63 22.55 22.52 22.64 22.60
12/4/2018 19:00 to 18:10 22.53 22.59 22.45 22.63 22.56 22.62
12/4/2018 18:00 to 17:10 22.66 22.67 22.80 22.74 22.86 22.80
12/4/2018 17:00 to 16:10 22.90 22.72 22.86 22.96 22.71 22.52
12/4/2018 16:00 to 15:10 22.74 22.64 22.55 22.79 22.71 22.57
12/4/2018 15:00 to 14:10 22.55 22.47 22.66 22.67 22.63 22.56
12/4/2018 14:00 to 13:10 22.52 22.54 22.54 22.60 22.56 22.47
12/4/2018 13:00 to 12:10 22.52 22.52 22.68 22.50 22.43 22.33
12/4/2018 12:00 to 11:10 22.43 22.31 22.32 22.15 22.29 22.32
12/4/2018 11:00 to 10:10 22.27 22.22 22.13 22.19 22.17 22.14
12/4/2018 10:00 to 9:10 22.09 22.13 22.15 22.09 21.95 21.96
12/4/2018 09:00 to 8:10 21.85 22.05 22.01 22.15 22.10 22.17
12/4/2018 08:00 to 7:10 22.08 22.09 22.18 22.13 22.10 22.04
12/4/2018 07:00 to 6:10 22.13 22.29 22.31 22.20 22.29 22.35
12/4/2018 06:00 to 5:10 22.42 22.30 22.30 22.41 22.34 22.29
12/4/2018 05:00 to 4:10 22.52 22.34 22.34 22.35 22.46 22.40
12/4/2018 04:00 to 3:10 22.54 22.67 22.53 22.51 22.45 22.40
12/4/2018 03:00 to 2:10 22.52 22.27 22.48 22.48 22.42 22.23
12/4/2018 02:00 to 1:10 22.29 22.44 22.35 22.36 22.33 22.17
12/4/2018 01:00 to 0:10 22.24 22.41 22.17 22.28 22.49 22.31